wenod
Inserzionista dal 7 / 6 / 2008
Prodotti in vendita: 146
Prodotti spediti: 46
Ultima spedizione: 19 / 03 / 2022
Riscontri Positivi: 28

Riscontri Neutri: 4

Riscontri Negativi: 12

Leggi gli ultimi commenti dei compratori:

Data Commento
27/07/2014 Tutto bene, anche se non sono riuscita a seguire la spedizione sul sito.
17/02/2013 Tutto ok! Grazie!
22/01/2013 Condizioni del libro ottime, grazie
26/10/2012 Grazie... Il libro in buono stato e i tempi di spedizione veloci :)
01/10/2012 l'inserzione diceva che erano come nuovi, tutt'altro, abbaiare stanca tenuto insieme con il nastro adesivo in due punti. sarebbe auspicabile maggior precisione nell'inserzione. grazie.

Altri prodotti disponibili del venditore

Prodotto Codice Titolo Anno Scadenza Prezzo vendita
LIBRO 9788879830898 I quattro pilastri della saggezza 1996 31/12/2023 0,26
LIBRO SCOLASTICO 9788886963510 A testa alta 2008 31/12/2025 4,00
LIBRO 9788878248717 Amiche 1998 31/12/2025 4,00
LIBRO 8811739993 Anche tu matematico 1989 31/12/2025 7,00
LIBRO 9788838436406 anni di cane 1999 31/12/2025 3,00
LIBRO SCOLASTICO 9788804530220 Ascolta il mio cuore 2004 31/12/2025 5,25
LIBRO SCOLASTICO 9788809012233 atlante geografico per la scuola 1999 31/12/2025 6,25
LIBRO 9788817664769 bagheria 1993 31/12/2025 5,16
LIBRO SCOLASTICO 9788889905289 banco di prova 2012 31/12/2025 3,50
LIBRO SCOLASTICO 9788838437274 banditi e marionette 1997 31/12/2025 3,50
LIBRO 9788863871050 Boves 1943 2010 2012 31/12/2025 15,00
LIBRO 9788877826466 boy 1997 31/12/2025 4,00
LIBRO Cacciatore oggi l’esame per attività venatoria 1997 31/12/2025 3,00
LIBRO 9788817842143 caro dio ti scrivo... - lettera di ragazzi italiani 1992 31/12/2025 5,00
LIBRO Carta dei servizi Informazioni utili sui Centri di Emofilia in Italia 2016 31/12/2025 2,00
LIBRO SCOLASTICO 9788880424147 Chimica progetto modulare 2007 31/12/2025 17,50
LIBRO 9788804562047 Col cavolo 2006 31/12/2025 4,80
LIBRO Come pianificare la propria vita 1994 31/12/2025 3,00
LIBRO 9788878246485 Come stelle cadenti 1994 31/12/2025 4,50
LIBRO 9788884907905 Conosci il mio amico Parky? Seguimi. Ti aiuterò a conoscerlo in modo serio 2005 31/12/2025 7,30
LIBRO 9788838426315 credere non credere 1996 31/12/2025 9,04
LIBRO 9788838426315 Credere non credere 1996 31/12/2025 10,00
LIBRO 9788863870336 Crispino e gli animali. Storia di una amicizia 2010 31/12/2025 6,00
LIBRO Dal Piemonte a Sion 1997 31/12/2025 4,00
LIBRO 9771828714516 De senectute e altri scritti autobiografici 1996 31/12/2025 6,00
LIBRO 9788804446255 Diana, cupido e il commendatore 1998 31/12/2025 4,25
LIBRO 9788820040253 Dio ci salvi dagli inglesi... o no!? 2006 31/12/2025 9,00
LIBRO 9788804432050 Disperatamente Giulia 1997 31/12/2025 3,00
LIBRO SCOLASTICO 9788842697879 Dizionario visuale 2005 31/12/2025 2,25
LIBRO 9788888681474 don bosco a cuneo 2005 31/12/2025 11,50
LIBRO 9788888681627 dov`è l`uscita storia di una mamma e di alessia, una figlia speciale 2006 31/12/2025 5,00
LIBRO 9788830420601 E liberaci dal male oscuro 2003 31/12/2025 9,80
LIBRO Elogio dell`imperfezione 1987 31/12/2025 7,00
LIBRO 9788817865371 elogio della zucca 2000 31/12/2025 7,23
LIBRO Figli di un dio minore 1990 31/12/2025 5,00
LIBRO 9788873203438 finestra rosa percorsi parlanti 2014 31/12/2025 5,00
LIBRO Getsemani 1980 31/12/2025 6,00
LIBRO 9788804494799 Giulia B. 2001 31/12/2025 2,00
LIBRO 9788815137159 gli insegnanti italiani: come cambia il modo di fare scuola 2010 31/12/2025 14,00
LIBRO 9788838489532 grosso guaio a new york 2007 31/12/2025 8,00
LIBRO 9788842094906 Guasto è il mondo 2011 31/12/2025 8,00
LIBRO 9788882462376 I balenieri di Quintay 2000 31/12/2025 4,00
LIBRO SCOLASTICO I BUONISSIMI N.1: PRIMI PIATTI. 2000 31/12/2025 1,00
LIBRO SCOLASTICO 9788843320264 I miserabili Bignami 2002 31/12/2025 3,50
LIBRO 9788804534211 i principi d`Irlanda 2004 31/12/2025 10,00
LIBRO 9788882742324 il barone 1992 31/12/2025 4,60
LIBRO 9788838489037 Il cacciatore di streghe - Milla e Sugar 2007 31/12/2025 7,00
LIBRO 9788838424113 il canto delle orche 2002 31/12/2025 3,00
LIBRO 9788878247741 il cigno nero 1997 31/12/2025 4,00
LIBRO 9788838447945 il falco delle nevi 2001 31/12/2025 2,45
LIBRO 9788804529217 il giorno della tempesta 2004 31/12/2025 2,30
LIBRO Il grande libro del fai da te 1988 31/12/2025 10,00
LIBRO 9788847719965 il mio unicorno magico il primo incantesimo 2007 31/12/2025 3,00
LIBRO Il mistero del lupo bianco 2006 31/12/2025 4,00
LIBRO Il nuovo catechismo olandese 1969 31/12/2025 5,00
LIBRO 9788845215919 il pendolo di foucault 1990 31/12/2025 6,00
LIBRO 9788876848766 il posto che cercavo 2005 31/12/2025 8,50
LIBRO 9788877032270 Il primo libro dei ricordi 1992 31/12/2025 7,50
LIBRO Innamoramento e amore 1982 31/12/2025 5,00
LIBRO 9788817211031 Insieme con i lupi 2000 31/12/2025 5,00
LIBRO SCOLASTICO 9788839530981 INTERMINATI SPAZI - CORSO DI SCRITTURA (U) 2010 31/12/2025 3,50
LIBRO SCOLASTICO 9788839530387 Interminati spazi A narrativa altri linguaggi temi 2010 31/12/2025 11,50
LIBRO Io speriamo che me la cavo 1990 31/12/2025 5,00
LIBRO 9788878240810 IT 1990 31/12/2025 8,00
LIBRO 9788817063739 Italiani di domani 2012 31/12/2025 8,00
LIBRO Javelli d`arancia idee e stile per la grande cuneo 1987 31/12/2025 6,00
LIBRO SCOLASTICO 9788888160863 juventas corso di latino MATERIALI DI LAVORO 2 2009 31/12/2025 8,00
LIBRO 9788873390237 king arthur 2004 31/12/2025 6,00
LIBRO SCOLASTICO l`airone 1978 31/12/2025 4,00
LIBRO 9788809791220 L`amico immaginario 2014 31/12/2025 4,00
LIBRO 9788863870916 l`Amore che cosa cerchiamo quando cerchiamo 2011 31/12/2025 7,00
LIBRO 9788846450777 L`arte del successo 2004 31/12/2025 14,25
LIBRO L`autonomia incompiuta 2010 31/12/2025 4,00
LIBRO 9788804501527 L`autostima. Volersi bene per voler bene agli altri 2002 31/12/2025 4,80
LIBRO SCOLASTICO 9788838472725 l`occhio di alabastro 2002 31/12/2025 3,50
LIBRO 9788846200952 l`uomo che sussurrava ai cavalli 1999 31/12/2025 2,04
LIBRO 9788817022880 l`uomo scomparso 2008 31/12/2025 5,00
LIBRO 770041444903 La divina commedia purgatorio 2004 31/12/2025 6,00
LIBRO 9788811678137 la donna alata 2004 31/12/2025 5,00
LIBRO SCOLASTICO La memoria della scienza. Musei e collezioni dell`Universita di Torino 2003 31/12/2025 30,00
LIBRO 9788824476720 La patente di guida europea manuale teorico pratico categorie A e B 2006 31/12/2025 4,50
LIBRO SCOLASTICO La sezione aurea - il linguaggio matematico della bellezza 2011 31/12/2025 8,00
LIBRO 9788874022311 La vita che si cerca - lettera ad uno studente sulla felicità dello studio 2005 31/12/2025 2,50
LIBRO 9788845421921 La zona facile 2002 31/12/2025 6,75
LIBRO SCOLASTICO Lo sguardo oltre l`orizzonte 2011 31/12/2025 6,00
LIBRO SCOLASTICO LOMBARDIA - TOURING CLUB ITALIANO parte prima volume secondo 1931 31/12/2025 10,00
LIBRO SCOLASTICO LOMBARDIA - TOURING CLUB ITALIANO parte seconda volume terzo 1931 31/12/2025 11,00
LIBRO 9788846201485 mia per sempre 2000 31/12/2025 2,00
LIBRO SCOLASTICO 9788880134190 moduli di lineamenti di matematica per il biennio delle scuole superiori 1999 31/12/2025 4,00
LIBRO 9788804375500 neve d`aprile 1993 31/12/2025 5,00
LIBRO 9788817534529 Non siamo più povera gente 1989 31/12/2025 7,23
LIBRO 9788811687702 Non volare via 2014 31/12/2025 5,00
LIBRO SCOLASTICO 9788849414974 nuova matematica a colori GEOMETRIA 2010 31/12/2025 7,90
LIBRO SCOLASTICO 9788842456315 Odi et amo 2 l`età augustea 2005 31/12/2025 10,40
LIBRO 9771129991005 One piece All’arrembaggio! 42 2007 31/12/2025 3,00
LIBRO 9771129991005 One piece All’arrembaggio! 43 2007 31/12/2025 3,00
LIBRO 9771129991005 One piece All’arrembaggio! 44 2007 31/12/2025 3,00
LIBRO 9788804588122 ora ricordo 2009 31/12/2025 9,25
LIBRO 9788804575122 Partitura d`addio 2008 31/12/2025 9,00
LIBRO 9788863870817 Piccoli cuori in provincia granda 2011 31/12/2025 7,00
sfoglia: prima ultima

I numeri Usato Unilibro

Totale Inserzionisti
14.278
Totale Articoli in vendita
86.535
Ultimo Inserzionista
bellaele
Totale inserzionisti di oggi
6
Totale articoli inseriti oggi
6

Top inserzionisti

LibreriaLibrAria
72.264
mescalero62
1.240
max 78
1.178
Summer84
593
exing
539
rodriguez
418
logos
319
ida
303
Tomiri.236
173
Andy
170
Usatodiale
164
simonac
149
I Libri di Filippo
148
wenod
146
davy
140
Billo
127
DEBORAHB
126
marcheromn
119
Via di Carta
118
scorpioncino65
112
Marapara
107
Ireoff
102
fede66
90
Scientifica
85
BRY
79